{"data":{"norad_id":59641,"epoch":"2026-05-25T04:21:16.899840Z","epoch_age_seconds":69409,"freshness":"FRESH","line1":"1 59641U 24082L   26145.18144560  .00000562  00000+0  29931-4 0  9998","line2":"2 59641  43.0032  67.5404 0000758 248.4712 111.6059 15.27575258116517","mean_motion":15.27575258,"eccentricity":7.58e-5,"inclination_deg":43.0032,"raan_deg":67.5404,"arg_perigee_deg":248.4712,"mean_anomaly_deg":111.6059,"bstar":2.9931e-5,"rev_number":11651,"period_min":94.267041342719,"perigee_km":482.54321634793,"apogee_km":483.5833743127,"semimajor_km":6861.2002953303,"source":"CELESTRAK","updated_at":"2026-05-25T13:38:19.014856Z"}}